Flag Weather past 2 weeks in Pointe-Noire, Congo

Now
82 °F

Broken clouds.


Feels Like: 89 °F
Forecast: 78 / 82 °F
Wind: 12 mph from South

Location: Pointe Airport-Noire

Current Time: Oct 30, 2014 at 1:15:04 PM

Latest Report: Oct 30, 2014 at 12:00 PM


Visibility: N/A

Pressure: 29.89 "Hg

Humidity: 79%

Dew point: 75 °F

Location of Pointe-NoireLocation

Historic Weather in Pointe-Noire — Graph

°F

Pointe-Noire temperature yesterday

Maximum temperature yesterday: 84 °F (at 1:00 PM)
Minimum temperature yesterday: 72 °F (at 5:00 AM)
Average temperature yesterday: 79 °F

Past Weeks' High & Low Weather Summary

 TemperatureHumidityPressure
High84 °F (Oct 17, 3:00 PM)100% (Oct 16, 6:00 AM)29.98 "Hg (Oct 16, 6:00 AM)
Low72 °F (Oct 28, 3:00 PM)66% (Oct 17, 3:00 PM)29.74 "Hg (Oct 29, 6:00 PM)
Average79 °F82%29.88 "Hg
* Reported Oct 15 12:00 Noon — Oct 30 12:00 Noon, Pointe-Noire, Weather by CustomWeather, © 2014

Note: Actual official high and low records may vary slightly from our data, if they occured in-between our weather recording intervals... More about our weather records

Advertising

Pointe-Noire weather history for previous 24 hours

 ConditionsComfort  
Time TempWeatherWind HumidityBarometerVisibility
12:00 PM
Oct 30
82 °FBroken clouds.12 mph79%29.89 "HgN/A
11:00 AM81 °FMore clouds than sun.12 mph84%29.86 "HgN/A
10:00 AM81 °FBroken clouds.7 mph84%29.89 "HgN/A
9:00 AM81 °FDrizzle. Broken clouds.8 mph89%29.89 "Hg5 mi
8:00 AM79 °FBroken clouds.10 mph89%29.89 "Hg5 mi
6:00 AM79 °FThunderstorms. Cloudy.3 mph89%29.83 "HgN/A
5:00 AM79 °FThunderstorms. Overcast.2 mph89%29.83 "HgN/A
4:00 AM79 °FThunderstorms. Partly cloudy.7 mph89%29.83 "Hg5 mi
3:00 AM79 °FThunderstorms. Overcast.3 mph89%29.83 "HgN/A
2:00 AM79 °FPassing clouds.6 mph84%29.83 "Hg5 mi
1:00 AM79 °FPassing clouds.7 mph84%29.83 "Hg5 mi
12:00 AM79 °FThunderstorms. Overcast.5 mph89%29.83 "HgN/A
11:00 PM
Oct 29
79 °FThunderstorms. Overcast.3 mph89%29.83 "HgN/A
10:00 PM79 °FPassing clouds.6 mph89%29.86 "Hg5 mi
9:00 PM79 °FPassing clouds.8 mph89%29.83 "HgN/A
8:00 PM81 °FPassing clouds.8 mph84%29.80 "HgN/A
7:00 PM81 °FPassing clouds.9 mph84%29.77 "HgN/A
6:00 PM81 °FPassing clouds.12 mph84%29.74 "HgN/A
5:00 PM82 °FPassing clouds.13 mph74%29.77 "HgN/A
4:00 PM84 °FScattered clouds.13 mph70%29.77 "HgN/A
3:00 PM84 °FScattered clouds.13 mph70%29.77 "HgN/A
2:00 PM82 °FPartly sunny.14 mph70%29.77 "HgN/A
1:00 PM84 °FPartly sunny.14 mph66%29.80 "HgN/A
Weather by CustomWeather, © 2014

See weather overviewHow to use our weather pages